Hourly Data Report for June 24, 2021

BORDEN AWOS
ONTARIO
Current Station Operator: DND

44°16'20.000" N
79°54'42.000" W
222.50 m
611B002
71534
YBN

Download Data

Hourly Data (June 2021)
Hourly Data Report for June 24, 2021
TIME
LST
Temp Definition
°C
Dew Point Definition
°C
Rel Hum Definition
%
Precip. Amount Definition
mm

Wind Dir Definition
10's deg

Wind Spd Definition
km/h
Visibility Definition
km
Stn Press Definition
kPa
Hmdx Definition


Wind Chill Definition


Weather Definition


00:00 17.4 9.3 59   21 11 14.5 99.42     LegendNANA
01:00 17.2 9.2 59   19 9 14.5 99.45     LegendNANA
02:00 17.7 9.2 58   18 15 14.5 99.45     LegendNANA
03:00 18.1 9.3 56   19 13 14.5 99.47     LegendNANA
04:00 16.7 9.1 61   17 11 14.5 99.46     LegendNANA
05:00 17.2 9.1 59   18 15 14.5 99.42     LegendNANA
06:00 18.8 10.0 57   18 11 14.5 99.43     LegendNANA
07:00 22.1 10.3 47   19 24 14.5 99.45     LegendNANA
08:00 23.1 10.5 45   18 30 14.5 99.43 25   LegendNANA
09:00 LegendMM LegendMM LegendMM   18 30 14.5 99.37     LegendNANA
10:00 26.5 10.0 36   18 31 LegendMM 99.35 28   LegendNANA
11:00 27.7 10.0 33   18 22 14.5 99.35 29   LegendNANA
12:00 27.3 9.8 33   16 35 14.5 99.25 28   LegendNANA
13:00 29.0 9.4 29   17 30 14.5 99.18 30   LegendNANA
14:00 28.9 8.1 27   17 30 14.5 99.16 29   LegendNANA
15:00 27.8 9.3 31   18 39 14.5 99.19 29   LegendNANA
16:00 27.5 9.7 33   18 26 14.5 99.17 29   LegendNANA
17:00 26.5 12.0 41   19 22 14.5 99.18 29   LegendNANA
18:00 25.3 12.4 45   19 24 14.5 99.21 28   LegendNANA
19:00
20:00 24.1 14.1 54   17 15 14.5 99.17 28   LegendNANA
21:00 23.8 14.5 56   17 15 14.5 99.22 27   LegendNANA
22:00 22.7 14.7 61   18 15 14.5 99.21 26   LegendNANA
23:00 22.8 14.8 61   18 13 14.5 99.18 27   LegendNANA

Notes on Data Quality.

Legend

  • E = Estimated
  • M = Missing
  • NA = Not Available*
  • [empty] = Indicates an unobserved value
Date modified: